[[{"header":{"parameterUnit":"m.s-1","parameterCategory":1,"la1":30.2991,"la2":30.254,"lo1":-89.0895,"lo2":-89.0444,"dy":0.0017,"dx":0.0017,"nx":28,"ny":28,"refTime":"2024-12-22T09:00:00:Z","depth":0,"parameterNumber":2,"parameterNumberName":"U-component_of_WINDS"},"data":[0,0,0,0,0,0,0,0,0,0,0,0,0,0,0,0,0,0,0,0,0,0,0,0,0,0,0,0,0,0,0,0,0,0,0,0,0,0,0,0,0,0,0,0,0,0,0,0,0,0,0,0,0,0,0,0,0,0,-3.8412,-3.8412,0,-3.8496,-3.8497,-3.8498,-3.8393,-3.8389,-3.8386,-3.8382,-3.8469,-3.8475,-3.848,0,0,0,0,0,0,0,0,0,0,0,0,0,-3.8159,-3.8165,-3.8411,-3.8413,-3.8414,-3.8496,-3.8497,-3.8498,-3.8394,-3.8389,-3.8385,-3.838,-3.8467,-3.8474,-3.8481,0,0,0,0,0,0,0,0,0,0,0,0,0,-3.8259,-3.8166,-3.8411,-3.8371,-3.8369,-3.8496,-3.8497,-3.8499,-3.8395,-3.8389,-3.8383,-3.8378,-3.8465,-3.8473,-3.8482,-3.8652,0,0,-3.8509,-3.8513,0,0,0,0,0,0,0,0,-3.8254,-3.8268,-3.8376,-3.8374,-3.8372,-3.8428,-3.844,-3.855,-3.8396,-3.8385,-3.8382,-3.8375,-3.846,-3.8469,-3.8497,-3.8656,-3.866,-3.851,-3.8515,-3.8519,-3.8521,0,0,0,0,0,0,0,-3.8247,-3.8264,-3.8445,-3.8378,-3.8375,-3.8349,-3.8357,-3.846,-3.8454,-3.8386,-3.8378,-3.839,-3.8458,-3.8489,-3.8499,-3.8661,-3.8509,-3.8517,-3.8523,-3.8526,-3.8964,-3.8971,0,0,0,0,0,0,-3.8245,-3.8259,-3.8442,-3.8447,-3.8297,-3.8359,-3.8367,-3.8416,-3.8452,-3.8452,-3.8394,-3.8384,-3.8477,-3.8488,-3.8501,-3.8703,-3.8519,-3.8527,-3.8532,-3.8958,-3.8966,-3.8973,0,0,0,0,0,0,-3.824,-3.8262,-3.8439,-3.8351,-3.8372,-3.8369,-3.8425,-3.8421,-3.8452,-3.8459,-3.8457,-3.8428,-3.8473,-3.8489,-3.8616,-3.8705,-3.8531,-3.8539,-3.8951,-3.8961,-3.8969,-3.9109,0,0,0,0,0,0,-3.8233,-3.8261,-3.8325,-3.8354,-3.8377,-3.8552,-3.843,-3.8426,-3.8468,-3.8455,-3.849,-3.849,-3.8469,-3.8603,-3.8624,-3.8714,-3.8546,-3.8943,-3.8955,-3.8966,-3.9096,-3.9122,-3.9144,0,0,0,0,0,-3.8224,-3.8361,-3.8329,-3.8352,-3.8458,-3.8557,-3.8571,-3.8544,-3.8475,-3.854,-3.8545,-3.8489,-3.8692,-3.8617,-3.864,-3.8734,-3.8937,-3.8952,-3.8965,-3.9086,-3.9117,-3.9144,0,0,0,0,0,0,-3.8343,-3.8364,-3.8329,-3.8479,-3.8517,-3.8539,-3.862,-3.8578,-3.8636,-3.8622,-3.8586,-3.8595,-3.873,-3.8744,-3.8661,-3.8901,-3.8803,-3.8823,-3.8887,-3.8916,-3.894,-3.8934,-3.8553,0,0,0,0,0,-3.8387,-3.8466,-3.848,-3.8611,-3.8632,-3.8624,-3.8666,-3.8642,-3.868,-3.8696,-3.8709,-3.8749,-3.8821,-3.8869,-3.8936,-3.9098,-3.9104,-3.9174,-3.9198,-3.9217,-3.9235,-3.9322,-3.9353,-3.902,-3.9019,-3.9019,0,0,-3.8478,-3.8499,-3.8551,-3.8636,-3.8662,-3.8745,-3.8638,-3.873,-3.8791,-3.8709,-3.883,-3.8842,-3.8883,-3.9028,-3.9093,-3.9044,-3.9328,-3.9235,-3.9251,-3.9258,-3.9339,-3.9371,-3.9399,-3.9029,-3.9027,-3.9026,0,0,-3.8686,-3.8711,-3.8823,-3.8852,-3.8894,-3.8887,-3.8915,-3.8944,-3.8948,-3.9069,-3.901,-3.9082,-3.9207,-3.9239,-3.9272,-3.9494,-3.9445,-3.9517,-3.9641,-3.9726,-3.9753,-3.9776,-3.9855,-3.9884,-3.9534,-3.9534,-3.9534,0,-3.8794,-3.8917,-3.8886,-3.8982,-3.9021,-3.8952,-3.9065,-3.9095,-3.9157,-3.9186,-3.913,-3.9287,-3.9309,-3.9461,-3.9516,-3.9544,-3.9574,-3.9512,-3.9751,-3.9774,-3.9795,-3.9871,-3.9901,-3.9543,-3.9542,-3.9541,-3.954,0,-3.9048,-3.9134,-3.9219,-3.9281,-3.933,-3.9435,-3.9419,-3.9473,-3.9445,-3.9444,-3.9568,-3.9593,-3.9664,-3.9698,-3.9672,-3.9847,-3.9816,-3.9757,-3.9658,-3.9836,-3.9906,-3.9935,-3.9555,-3.9552,-3.9549,-3.9547,0,0,-3.9333,-3.9377,-3.9409,-3.9436,-3.9478,-3.9544,-3.9646,-3.9715,-3.9762,-3.9807,-3.9892,-4.0,-3.9946,-3.9983,-3.996,-4.0034,-4.0209,-3.9966,-3.9966,-4.0011,-4.0404,-4.0448,-4.0482,-4.0177,-4.0182,-4.0187,-4.0401,0,-3.9541,-3.9718,-3.9693,-3.9863,-3.9942,-3.9878,-3.9966,-4.0002,-4.0004,-4.0072,-4.0074,-4.0151,-4.0074,-4.0096,-4.0167,-4.0173,-4.0288,-4.0157,-4.0255,-4.0259,-4.0247,-4.0519,-4.0566,-4.0766,-4.0428,-4.0432,-4.0436,0,-3.9808,-3.9864,-4.0042,-4.0072,-4.0104,-4.0185,-4.0247,-4.0312,-4.0351,-4.0348,-4.039,-4.0354,-4.0456,-4.0355,-4.0496,-4.0407,-4.0446,-4.0455,-4.0462,-4.047,-4.0358,-4.0534,-4.0829,-4.086,-4.0479,-4.0475,-4.0472,0,-3.9999,-4.0118,-4.024,-4.0266,-4.0304,-4.0362,-4.038,-4.0413,-4.0457,-4.0512,-4.054,-4.0606,-4.0642,-4.0694,-4.0676,-4.0604,-4.082,-4.0718,-4.082,-4.0821,-4.0868,-4.0866,-4.1174,-4.0894,-4.0894,-4.0893,-4.0892,0,-4.0235,-4.0346,-4.0326,-4.0401,-4.0524,-4.0495,-4.0618,-4.0628,-4.0659,-4.0735,-4.0683,-4.0755,-4.0727,-4.0798,-4.0785,-4.0904,-4.092,-4.092,-4.0916,-4.0925,-4.0925,-4.095,-4.0936,-4.0901,-4.0899,-4.0898,-4.0896,0,-4.0468,-4.0459,-4.0588,-4.0614,-4.0623,-4.0713,-4.0734,-4.0805,-4.0804,-4.0901,-4.0922,-4.092,-4.1,-4.0988,-4.1078,-4.1069,-4.1217,-4.1195,-4.1204,-4.1199,-4.1301,-4.1292,-4.1637,-4.168,-4.1372,-4.1375,-4.1378,0,-4.0619,-4.0703,-4.0739,-4.0786,-4.0809,-4.0886,-4.093,-4.0905,-4.0954,-4.1005,-4.107,-4.1146,-4.1205,-4.1338,-4.1344,-4.1413,-4.1392,-4.1508,-4.1402,-4.1409,-4.1394,-4.1389,-4.1397,-4.1529,-4.1533,-4.1535,-4.1538,0,-4.0888,-4.088,-4.0946,-4.1012,-4.1066,-4.1117,-4.1162,-4.1203,-4.1182,-4.124,-4.1322,-4.1368,-4.146,-4.1537,-4.1601,-4.162,-4.1576,-4.1571,-4.1599,-4.1609,-4.1611,-4.1611,-4.1261,-4.1563,-4.1561,-4.1559,-4.1558,-4.1557,-4.1084,-4.1157,-4.1193,-4.1269,-4.13,-4.1344,-4.1412,-4.1419,-4.1487,-4.156,-4.1541,-4.1635,-4.1672,-4.1754,-4.178,-4.1853,-4.181,-4.1849,-4.1859,-4.1869,-4.1882,-4.16,-4.1864,-4.1864,-4.1863,-4.1862,-4.1862,0,-4.1351,-4.1371,-4.1441,-4.1506,-4.1566,-4.152,-4.1568,-4.1621,-4.1704,-4.1743,-4.1803,-4.1898,-4.1972,-4.1985,-4.2055,-4.2111,-4.2093,-4.213,-4.2126,-4.2131,-4.1916,-4.1885,-4.2144,-4.2144,-4.2144,-4.2144,-4.2144,-4.2144,-4.1496,-4.1616,-4.1612,-4.1747,-4.1767,-4.1858,-4.1889,-4.1929,-4.196,-4.2069,-4.213,-4.2138,-4.2167,-4.2239,-4.2305,-4.2307,-4.2335,-4.2381,-4.2375,-4.2174,-4.2146,-4.2119,-4.209,-4.2388,-4.2388,-4.2584,-4.2586,-4.2587]},{"header":{"parameterUnit":"m.s-1","parameterCategory":1,"la1":30.2991,"la2":30.254,"lo1":-89.0895,"lo2":-89.0444,"dy":0.0017,"dx":0.0017,"nx":28,"ny":28,"refTime":"2024-12-22T09:00:00:Z","depth":0,"parameterNumber":3,"parameterNumberName":"V-component_of_WINDS"},"data":[0,0,0,0,0,0,0,0,0,0,0,0,0,0,0,0,0,0,0,0,0,0,0,0,0,0,0,0,0,0,0,0,0,0,0,0,0,0,0,0,0,0,0,0,0,0,0,0,0,0,0,0,0,0,0,0,0,0,-2.2191,-2.2191,0,-2.223,-2.223,-2.2231,-2.2194,-2.2193,-2.2191,-2.219,-2.2228,-2.2231,-2.2233,0,0,0,0,0,0,0,0,0,0,0,0,0,-2.2082,-2.2084,-2.2191,-2.2191,-2.2192,-2.223,-2.223,-2.2231,-2.2195,-2.2193,-2.2191,-2.2189,-2.2228,-2.223,-2.2233,0,0,0,0,0,0,0,0,0,0,0,0,0,-2.2126,-2.2085,-2.2191,-2.2178,-2.2178,-2.223,-2.223,-2.2231,-2.2195,-2.2193,-2.2191,-2.2189,-2.2227,-2.223,-2.2234,-2.23,0,0,-2.2245,-2.2246,0,0,0,0,0,0,0,0,-2.2123,-2.213,-2.218,-2.2179,-2.2179,-2.2205,-2.2206,-2.2254,-2.2196,-2.2188,-2.219,-2.2187,-2.2222,-2.2226,-2.2238,-2.2302,-2.2303,-2.2245,-2.2247,-2.2249,-2.225,0,0,0,0,0,0,0,-2.212,-2.2128,-2.2206,-2.218,-2.218,-2.217,-2.2174,-2.2215,-2.2217,-2.2189,-2.2186,-2.2191,-2.2222,-2.2235,-2.2239,-2.2304,-2.2245,-2.2248,-2.225,-2.2252,-2.2422,-2.2424,0,0,0,0,0,0,-2.2119,-2.2126,-2.2205,-2.2207,-2.2145,-2.2174,-2.2178,-2.2199,-2.2217,-2.2217,-2.2193,-2.219,-2.223,-2.2235,-2.224,-2.2318,-2.2249,-2.2252,-2.2254,-2.2419,-2.2422,-2.2425,0,0,0,0,0,0,-2.2117,-2.2126,-2.2203,-2.2166,-2.2175,-2.2178,-2.2202,-2.2201,-2.2214,-2.222,-2.222,-2.2207,-2.2228,-2.2235,-2.2285,-2.2319,-2.2254,-2.2257,-2.2417,-2.242,-2.2424,-2.2475,0,0,0,0,0,0,-2.2114,-2.2126,-2.2152,-2.2167,-2.2177,-2.2249,-2.2204,-2.2203,-2.222,-2.2216,-2.2233,-2.2233,-2.2227,-2.228,-2.2289,-2.2323,-2.226,-2.2414,-2.2418,-2.2422,-2.247,-2.248,-2.2488,0,0,0,0,0,-2.211,-2.2164,-2.2153,-2.2163,-2.221,-2.2251,-2.2257,-2.2249,-2.2223,-2.2249,-2.2252,-2.2233,-2.2314,-2.2285,-2.2295,-2.233,-2.2411,-2.2417,-2.2422,-2.2466,-2.2478,-2.2488,0,0,0,0,0,0,-2.2153,-2.2166,-2.2154,-2.2215,-2.2232,-2.2245,-2.2277,-2.2262,-2.2286,-2.2281,-2.227,-2.2274,-2.2326,-2.2333,-2.2302,-2.2394,-2.2358,-2.2366,-2.2388,-2.2399,-2.2408,-2.2406,-2.2263,0,0,0,0,0,-2.2169,-2.2203,-2.2212,-2.2265,-2.2274,-2.2274,-2.2292,-2.2284,-2.2301,-2.2308,-2.2315,-2.2332,-2.2361,-2.2381,-2.2408,-2.247,-2.2473,-2.2499,-2.2508,-2.2516,-2.2522,-2.2555,-2.2567,-2.2442,-2.2442,-2.2442,0,0,-2.2204,-2.2215,-2.2237,-2.2274,-2.2286,-2.232,-2.228,-2.2318,-2.2342,-2.2314,-2.2361,-2.2367,-2.2385,-2.2441,-2.2467,-2.2449,-2.2557,-2.2522,-2.2528,-2.2531,-2.2562,-2.2573,-2.2584,-2.2446,-2.2445,-2.2445,0,0,-2.2284,-2.2297,-2.2342,-2.2355,-2.2374,-2.2373,-2.2384,-2.2399,-2.2402,-2.2449,-2.2428,-2.2457,-2.2507,-2.2521,-2.2534,-2.2618,-2.26,-2.2627,-2.2673,-2.2705,-2.2715,-2.2724,-2.2753,-2.2764,-2.2633,-2.2633,-2.2634,0,-2.2325,-2.2376,-2.2367,-2.2406,-2.2422,-2.2397,-2.2442,-2.2455,-2.2482,-2.2494,-2.2473,-2.2535,-2.2546,-2.2604,-2.2625,-2.2637,-2.2648,-2.2625,-2.2715,-2.2723,-2.2731,-2.2759,-2.277,-2.2637,-2.2636,-2.2636,-2.2636,0,-2.2424,-2.2459,-2.2493,-2.252,-2.254,-2.2582,-2.2578,-2.26,-2.259,-2.2591,-2.2639,-2.2651,-2.2679,-2.2692,-2.2684,-2.275,-2.2738,-2.2716,-2.268,-2.2746,-2.2772,-2.2783,-2.2641,-2.264,-2.2639,-2.2638,0,0,-2.2534,-2.2554,-2.2567,-2.2579,-2.2597,-2.2624,-2.2664,-2.2692,-2.271,-2.2729,-2.2762,-2.2805,-2.2784,-2.28,-2.2792,-2.282,-2.2885,-2.2794,-2.2794,-2.2811,-2.2958,-2.2974,-2.2987,-2.2873,-2.2875,-2.2877,-2.2956,0,-2.2614,-2.2685,-2.2677,-2.2744,-2.2776,-2.2752,-2.2787,-2.2802,-2.2803,-2.283,-2.2831,-2.2862,-2.2833,-2.2842,-2.2869,-2.2871,-2.2914,-2.2865,-2.2903,-2.2904,-2.2899,-2.3001,-2.3018,-2.3093,-2.2966,-2.2968,-2.2969,0,-2.2718,-2.2741,-2.2811,-2.2825,-2.2838,-2.2869,-2.2894,-2.292,-2.2935,-2.2934,-2.2951,-2.2938,-2.2977,-2.2939,-2.2992,-2.2959,-2.2973,-2.2977,-2.298,-2.2983,-2.2941,-2.3007,-2.3117,-2.3128,-2.2985,-2.2984,-2.2983,0,-2.2791,-2.2839,-2.2887,-2.2898,-2.2914,-2.2937,-2.2945,-2.2958,-2.2975,-2.2996,-2.3007,-2.3033,-2.3047,-2.3066,-2.3059,-2.3033,-2.3114,-2.3075,-2.3113,-2.3114,-2.3132,-2.3131,-2.3246,-2.3141,-2.3141,-2.3141,-2.3141,0,-2.2882,-2.2926,-2.292,-2.295,-2.2997,-2.2987,-2.3035,-2.3039,-2.3051,-2.308,-2.3061,-2.3089,-2.3079,-2.3105,-2.31,-2.3145,-2.3151,-2.3151,-2.3149,-2.3153,-2.3153,-2.3163,-2.3157,-2.3144,-2.3143,-2.3143,-2.3142,0,-2.2972,-2.297,-2.302,-2.3031,-2.3035,-2.307,-2.3079,-2.3106,-2.3106,-2.3143,-2.3151,-2.3151,-2.3181,-2.3176,-2.321,-2.3206,-2.3262,-2.3254,-2.3257,-2.3255,-2.3293,-2.329,-2.3419,-2.3435,-2.332,-2.3321,-2.3322,0,-2.303,-2.3063,-2.3078,-2.3097,-2.3106,-2.3136,-2.3153,-2.3144,-2.3163,-2.3183,-2.3207,-2.3236,-2.3258,-2.3308,-2.331,-2.3335,-2.3327,-2.3371,-2.3331,-2.3333,-2.3328,-2.3326,-2.3329,-2.3379,-2.338,-2.3381,-2.3382,0,-2.3134,-2.3131,-2.3157,-2.3183,-2.3205,-2.3224,-2.3242,-2.3258,-2.325,-2.3272,-2.3303,-2.332,-2.3354,-2.3383,-2.3406,-2.3413,-2.3396,-2.3394,-2.3404,-2.3409,-2.3409,-2.3409,-2.3278,-2.3392,-2.3391,-2.339,-2.3389,-2.3389,-2.321,-2.3238,-2.3253,-2.3282,-2.3294,-2.3311,-2.3337,-2.334,-2.3366,-2.3393,-2.3386,-2.3421,-2.3434,-2.3464,-2.3473,-2.35,-2.3484,-2.3498,-2.3502,-2.3506,-2.3511,-2.3405,-2.3504,-2.3504,-2.3503,-2.3503,-2.3503,0,-2.3313,-2.3321,-2.3348,-2.3373,-2.3396,-2.3379,-2.3397,-2.3417,-2.3448,-2.3462,-2.3485,-2.352,-2.3547,-2.3551,-2.3576,-2.3597,-2.359,-2.3604,-2.3602,-2.3604,-2.3524,-2.3512,-2.3609,-2.3609,-2.3609,-2.3609,-2.3609,-2.3609,-2.3369,-2.3416,-2.3414,-2.3466,-2.3473,-2.3508,-2.352,-2.3534,-2.3546,-2.3586,-2.3608,-2.3611,-2.3621,-2.3646,-2.367,-2.367,-2.3681,-2.3698,-2.3695,-2.362,-2.361,-2.36,-2.3589,-2.37,-2.37,-2.3773,-2.3774,-2.3775]}]]